RYR6CA LFBT-EIDW

Flight info

Callsign RYR6CA
Flight time 1h 45m
Altitude 36000
Route USAKU DCT AGN DCT SECHE DCT UVELI DCT CNA DCT MANAK DCT MUREL DCT NOZHU/N0436F370 DCT SHIRI/N0441F380 DCT UNFIT DCT PENWU DCT NICXI DCT LEMGU M17 VATRY VATRY4L
Aircraft B738/M-SDE2E3FGHIRWXY/LB1

Departure

Time 2026-04-20 22:17
Airport Tarbes-Lourdes-Pyrénées Airport (LFBT)

Arrival

Time 2026-04-21 00:02
Airport Dublin Airport (EIDW)
Time Latitude Longitude Altitude Speed Heading
2026-04-20 22:11 43.18531 0.00082 1200 ft 0 kts 340°
2026-04-20 22:13 43.18533 0.00079 1200 ft 1 kts 312°
2026-04-20 22:14 43.18522 0.00030 1198 ft 11 kts 251°
2026-04-20 22:14 43.18508 -0.00108 1197 ft 15 kts 285°
2026-04-20 22:14 43.18539 -0.00247 1197 ft 15 kts 287°
2026-04-20 22:14 43.18517 -0.00303 1198 ft 0 kts 201°
2026-04-20 22:16 43.18335 -0.00395 1206 ft 71 kts 200°
2026-04-20 22:16 43.17585 -0.00778 1241 ft 152 kts 200°
2026-04-20 22:17 43.16496 -0.01353 1907 ft 174 kts 200°
2026-04-20 22:17 43.15346 -0.01980 2979 ft 180 kts 201°
2026-04-20 22:17 43.14173 -0.02614 3975 ft 188 kts 199°
2026-04-20 22:17 43.12875 -0.03231 4328 ft 214 kts 198°
2026-04-20 22:18 43.11315 -0.03438 4667 ft 232 kts 168°
2026-04-20 22:18 43.09901 -0.02423 5290 ft 240 kts 135°
2026-04-20 22:18 43.09121 -0.00395 5935 ft 250 kts 100°
2026-04-20 22:18 43.09218 0.02044 6405 ft 272 kts 70°
2026-04-20 22:19 43.10295 0.04213 6982 ft 283 kts 37°
2026-04-20 22:19 43.12048 0.05402 7819 ft 283 kts 16°
2026-04-20 22:19 43.13931 0.06206 8726 ft 285 kts 14°
2026-04-20 22:19 43.15840 0.06980 9609 ft 288 kts 13°
2026-04-20 22:20 43.17779 0.07778 10377 ft 295 kts 13°
2026-04-20 22:20 43.19824 0.08638 10631 ft 321 kts 14°
2026-04-20 22:20 43.22034 0.09590 10830 ft 346 kts 14°
2026-04-20 22:20 43.24404 0.10631 11019 ft 369 kts 15°
2026-04-20 22:21 43.26917 0.11748 11225 ft 388 kts 15°
2026-04-20 22:21 43.29516 0.12911 11723 ft 397 kts 15°
2026-04-20 22:21 43.32151 0.14090 12411 ft 400 kts 15°
2026-04-20 22:21 43.34823 0.15192 13095 ft 402 kts 12°
2026-04-20 22:22 43.37551 0.16108 13731 ft 405 kts 10°
2026-04-20 22:22 43.40309 0.16964 14322 ft 409 kts
2026-04-20 22:22 43.43096 0.17833 14923 ft 412 kts 10°
2026-04-20 22:22 43.45896 0.18732 15534 ft 415 kts 10°
2026-04-20 22:23 43.48718 0.19657 16115 ft 419 kts 10°
2026-04-20 22:23 43.51570 0.20512 16686 ft 420 kts
2026-04-20 22:23 43.54483 0.20723 17251 ft 419 kts 354°
2026-04-20 22:23 43.57373 0.20241 17825 ft 419 kts 345°
2026-04-20 22:24 43.60178 0.19162 18370 ft 420 kts 340°
2026-04-20 22:24 43.62980 0.17972 18844 ft 423 kts 340°
2026-04-20 22:24 43.65798 0.16764 19349 ft 425 kts 340°
2026-04-20 22:24 43.68635 0.15552 19846 ft 428 kts 340°
2026-04-20 22:25 43.71486 0.14343 20336 ft 430 kts 340°
2026-04-20 22:25 43.74359 0.13134 20813 ft 433 kts 340°
2026-04-20 22:25 43.77245 0.11925 21268 ft 435 kts 340°
2026-04-20 22:25 43.80161 0.10709 21711 ft 438 kts 340°
2026-04-20 22:26 43.83086 0.09489 22149 ft 440 kts 340°
2026-04-20 22:26 43.86026 0.08264 22601 ft 442 kts 340°
2026-04-20 22:26 43.88982 0.07031 23023 ft 445 kts 340°
2026-04-20 22:27 43.94939 0.04541 23755 ft 450 kts 340°
2026-04-20 22:27 43.97939 0.03285 24095 ft 451 kts 340°
2026-04-20 22:27 44.00953 0.02021 24437 ft 453 kts 340°
2026-04-20 22:27 44.03972 0.00754 24781 ft 455 kts 340°
2026-04-20 22:28 44.07009 -0.00522 25120 ft 456 kts 340°
2026-04-20 22:28 44.10058 -0.01805 25356 ft 460 kts 340°
2026-04-20 22:28 44.13130 -0.03098 25601 ft 463 kts 340°
2026-04-20 22:28 44.16216 -0.04399 25930 ft 463 kts 340°
2026-04-20 22:29 44.19296 -0.05698 26381 ft 461 kts 340°
2026-04-20 22:29 44.22360 -0.06990 26878 ft 458 kts 340°
2026-04-20 22:29 44.25400 -0.08274 27394 ft 455 kts 340°
2026-04-20 22:29 44.28424 -0.09554 27887 ft 453 kts 340°
2026-04-20 22:30 44.31443 -0.10833 28316 ft 453 kts 340°
2026-04-20 22:30 44.34451 -0.12109 28757 ft 452 kts 340°
2026-04-20 22:30 44.37452 -0.13384 29234 ft 450 kts 340°
2026-04-20 22:30 44.40437 -0.14653 29727 ft 448 kts 340°
2026-04-20 22:31 44.43413 -0.15920 30196 ft 446 kts 339°
2026-04-20 22:31 44.46375 -0.17181 30617 ft 444 kts 339°
2026-04-20 22:31 44.49325 -0.18440 30941 ft 444 kts 339°
2026-04-20 22:31 44.52284 -0.19704 31233 ft 445 kts 339°
2026-04-20 22:32 44.55243 -0.20970 31553 ft 444 kts 339°
2026-04-20 22:32 44.58158 -0.22217 31907 ft 444 kts 339°
2026-04-20 22:32 44.61108 -0.23481 32253 ft 443 kts 339°
2026-04-20 22:32 44.64052 -0.24743 32627 ft 442 kts 339°
2026-04-20 22:33 44.66989 -0.26003 32995 ft 441 kts 339°
2026-04-20 22:33 44.69920 -0.27263 33308 ft 441 kts 339°
2026-04-20 22:33 44.72854 -0.28525 33596 ft 441 kts 339°
2026-04-20 22:33 44.75788 -0.29789 33922 ft 441 kts 339°
2026-04-20 22:34 44.78717 -0.31052 34230 ft 440 kts 339°
2026-04-20 22:34 44.81639 -0.32313 34490 ft 440 kts 339°
2026-04-20 22:34 44.84570 -0.33579 34735 ft 440 kts 339°
2026-04-20 22:34 44.87494 -0.34844 34996 ft 440 kts 339°
2026-04-20 22:35 44.90418 -0.36110 35257 ft 439 kts 339°
2026-04-20 22:35 44.93339 -0.37375 35498 ft 439 kts 339°
2026-04-20 22:35 44.96262 -0.38644 35736 ft 439 kts 339°
2026-04-20 22:35 44.99185 -0.39913 35989 ft 439 kts 339°
2026-04-20 22:36 45.02101 -0.41180 36284 ft 438 kts 339°
2026-04-20 22:36 45.05009 -0.42445 36564 ft 437 kts 339°
2026-04-20 22:36 45.07916 -0.43712 36766 ft 437 kts 339°
2026-04-20 22:36 45.10828 -0.44983 36965 ft 438 kts 339°
2026-04-20 22:37 45.13740 -0.46255 37202 ft 438 kts 338°
2026-04-20 22:37 45.16650 -0.47526 37453 ft 437 kts 338°
2026-04-20 22:37 45.19557 -0.48798 37686 ft 437 kts 338°
2026-04-20 22:37 45.22461 -0.50070 37931 ft 437 kts 338°
2026-04-20 22:38 45.28295 -0.52631 37981 ft 440 kts 338°
2026-04-20 22:38 45.34123 -0.55192 37984 ft 437 kts 338°
2026-04-20 22:39 45.39908 -0.57740 37995 ft 434 kts 338°
2026-04-20 22:39 45.45666 -0.60282 37987 ft 432 kts 338°
2026-04-20 22:40 45.51406 -0.62823 37984 ft 431 kts 338°
2026-04-20 22:40 45.57131 -0.65362 38001 ft 431 kts 338°
2026-04-20 22:41 45.62868 -0.67913 37999 ft 432 kts 338°
2026-04-20 22:41 45.68614 -0.70473 38000 ft 433 kts 338°
2026-04-20 22:42 45.74382 -0.73048 38004 ft 435 kts 338°
2026-04-20 22:42 45.80167 -0.75635 38013 ft 436 kts 338°
2026-04-20 22:43 45.85970 -0.78236 38010 ft 437 kts 338°
2026-04-20 22:43 45.91788 -0.80850 38009 ft 438 kts 338°
2026-04-20 22:44 45.97612 -0.83472 38034 ft 439 kts 338°
2026-04-20 22:44 46.03440 -0.86102 38023 ft 439 kts 338°
2026-04-20 22:45 46.08281 -0.88291 38016 ft 438 kts 338°
2026-04-20 22:45 46.14097 -0.90927 38022 ft 438 kts 338°
2026-04-20 22:46 46.19901 -0.93564 38039 ft 437 kts 337°
2026-04-20 22:46 46.25348 -0.97204 38034 ft 430 kts 327°
2026-04-20 22:47 46.30574 -1.01386 38027 ft 429 kts 327°
2026-04-20 22:47 46.35792 -1.05561 38025 ft 429 kts 327°
2026-04-20 22:48 46.41020 -1.09712 38046 ft 428 kts 327°
2026-04-20 22:48 46.46248 -1.13852 38047 ft 428 kts 327°
2026-04-20 22:49 46.51472 -1.17994 38047 ft 428 kts 327°
2026-04-20 22:49 46.56692 -1.22141 38059 ft 428 kts 327°
2026-04-20 22:50 46.61912 -1.26298 38048 ft 428 kts 327°
2026-04-20 22:50 46.67135 -1.30468 38059 ft 428 kts 327°
2026-04-20 22:51 46.72356 -1.34644 38048 ft 428 kts 327°
2026-04-20 22:51 46.77547 -1.38806 38049 ft 429 kts 327°
2026-04-20 22:52 46.82771 -1.43004 38051 ft 429 kts 327°
2026-04-20 22:52 46.87998 -1.47213 38050 ft 429 kts 327°
2026-04-20 22:53 46.93228 -1.51435 38055 ft 429 kts 327°
2026-04-20 22:53 46.98455 -1.55663 38083 ft 429 kts 327°
2026-04-20 22:54 47.03676 -1.59896 38072 ft 429 kts 327°
2026-04-20 22:54 47.08894 -1.64136 38080 ft 428 kts 327°
2026-04-20 22:55 47.14100 -1.68376 38070 ft 428 kts 327°
2026-04-20 22:55 47.19301 -1.72622 38075 ft 428 kts 327°
2026-04-20 22:56 47.24503 -1.76878 38080 ft 428 kts 327°
2026-04-20 22:56 47.29697 -1.81137 38085 ft 427 kts 327°
2026-04-20 22:57 47.34894 -1.85408 38085 ft 427 kts 327°
2026-04-20 22:57 47.40085 -1.89684 38107 ft 428 kts 327°
2026-04-20 22:58 47.45283 -1.93976 38107 ft 428 kts 327°
2026-04-20 22:58 47.50472 -1.98270 38106 ft 428 kts 327°
2026-04-20 22:59 47.55627 -2.02546 38114 ft 427 kts 327°
2026-04-20 22:59 47.60849 -2.06887 38125 ft 428 kts 327°
2026-04-20 23:00 47.66004 -2.11182 38116 ft 428 kts 327°
2026-04-20 23:00 47.71191 -2.15514 38135 ft 428 kts 327°
2026-04-20 23:01 47.76383 -2.19860 38130 ft 428 kts 327°
2026-04-20 23:01 47.81575 -2.24217 38138 ft 429 kts 327°
2026-04-20 23:02 47.86773 -2.28588 38138 ft 429 kts 327°
2026-04-20 23:02 47.91974 -2.32972 38139 ft 429 kts 327°
2026-04-20 23:03 47.97172 -2.37363 38148 ft 429 kts 327°
2026-04-20 23:03 48.02367 -2.41763 38148 ft 430 kts 327°
2026-04-20 23:04 48.07572 -2.46180 38144 ft 430 kts 327°
2026-04-20 23:04 48.12772 -2.50605 38155 ft 430 kts 327°
2026-04-20 23:05 48.17973 -2.55040 38150 ft 430 kts 327°
2026-04-20 23:05 48.23174 -2.59486 38161 ft 430 kts 327°
2026-04-20 23:06 48.28376 -2.63944 38160 ft 431 kts 327°
2026-04-20 23:06 48.33580 -2.68414 38161 ft 431 kts 327°
2026-04-20 23:07 48.38781 -2.72891 38165 ft 431 kts 327°
2026-04-20 23:07 48.43983 -2.77381 38170 ft 431 kts 327°
2026-04-20 23:08 48.49187 -2.81882 38166 ft 431 kts 327°
2026-04-20 23:08 48.54390 -2.86394 38156 ft 431 kts 327°
2026-04-20 23:09 48.59586 -2.90910 38157 ft 431 kts 327°
2026-04-20 23:09 48.64782 -2.95438 38163 ft 431 kts 327°
2026-04-20 23:10 48.69943 -2.99946 38161 ft 431 kts 327°
2026-04-20 23:10 48.75130 -3.04486 38169 ft 431 kts 327°
2026-04-20 23:11 48.80319 -3.09040 38179 ft 431 kts 327°
2026-04-20 23:11 48.85505 -3.13603 38180 ft 431 kts 327°
2026-04-20 23:12 48.90693 -3.18178 38182 ft 431 kts 327°
2026-04-20 23:12 48.95881 -3.22764 38183 ft 431 kts 327°
2026-04-20 23:13 49.01071 -3.27363 38182 ft 431 kts 326°
2026-04-20 23:13 49.06259 -3.31972 38199 ft 432 kts 326°
2026-04-20 23:14 49.11443 -3.36588 38187 ft 431 kts 326°
2026-04-20 23:14 49.16624 -3.41214 38192 ft 431 kts 326°
2026-04-20 23:15 49.21802 -3.45848 38199 ft 431 kts 326°
2026-04-20 23:15 49.26978 -3.50491 38209 ft 431 kts 326°
2026-04-20 23:16 49.32174 -3.55095 38203 ft 433 kts 329°
2026-04-20 23:16 49.37801 -3.58513 38194 ft 436 kts 336°
2026-04-20 23:17 49.43519 -3.61644 38209 ft 437 kts 336°
2026-04-20 23:17 49.49230 -3.64854 38215 ft 437 kts 336°
2026-04-20 23:18 49.54936 -3.68119 38205 ft 437 kts 336°
2026-04-20 23:18 49.60601 -3.71374 38217 ft 438 kts 336°
2026-04-20 23:19 49.66349 -3.74658 38221 ft 439 kts 338°
2026-04-20 23:19 49.72371 -3.76219 38219 ft 447 kts 355°
2026-04-20 23:20 49.78614 -3.75601 38224 ft 450 kts
2026-04-20 23:20 49.84852 -3.74746 38230 ft 450 kts
2026-04-20 23:21 49.91091 -3.73947 38252 ft 449 kts
2026-04-20 23:21 49.97322 -3.73194 38237 ft 449 kts
2026-04-20 23:22 50.03550 -3.72453 38227 ft 448 kts
2026-04-20 23:22 50.09766 -3.71710 38243 ft 448 kts
2026-04-20 23:23 50.15977 -3.70964 38254 ft 448 kts
2026-04-20 23:23 50.22187 -3.70216 38243 ft 447 kts
2026-04-20 23:24 50.28388 -3.69466 38250 ft 447 kts
2026-04-20 23:24 50.34586 -3.68716 38270 ft 447 kts
2026-04-20 23:25 50.40765 -3.68557 38260 ft 441 kts 349°
2026-04-20 23:25 50.46632 -3.71000 38261 ft 435 kts 336°
2026-04-20 23:26 50.52239 -3.74539 38258 ft 434 kts 335°
2026-04-20 23:26 50.57846 -3.78104 38264 ft 434 kts 335°
2026-04-20 23:27 50.63462 -3.81632 38273 ft 435 kts 336°
2026-04-20 23:27 50.69094 -3.85150 38269 ft 436 kts 336°
2026-04-20 23:28 50.74730 -3.88673 38275 ft 436 kts 336°
2026-04-20 23:28 50.80372 -3.92209 38270 ft 436 kts 336°
2026-04-20 23:29 50.86016 -3.95757 38279 ft 437 kts 336°
2026-04-20 23:29 50.91669 -3.99321 38273 ft 438 kts 336°
2026-04-20 23:30 50.97330 -4.02899 38277 ft 438 kts 335°
2026-04-20 23:30 51.02989 -4.06485 38274 ft 438 kts 335°
2026-04-20 23:31 51.08646 -4.10079 38274 ft 438 kts 335°
2026-04-20 23:31 51.14308 -4.13686 38277 ft 438 kts 335°
2026-04-20 23:32 51.19010 -4.16690 38275 ft 438 kts 335°
2026-04-20 23:32 51.24673 -4.20315 38270 ft 438 kts 335°
2026-04-20 23:33 51.30338 -4.23951 38279 ft 439 kts 335°
2026-04-20 23:33 51.36005 -4.27599 38283 ft 439 kts 335°
2026-04-20 23:34 51.41683 -4.31263 38282 ft 440 kts 335°
2026-04-20 23:34 51.47245 -4.35286 38276 ft 438 kts 332°
2026-04-20 23:35 51.55480 -4.41681 38293 ft 439 kts 332°
2026-04-20 23:36 51.60994 -4.45917 38283 ft 440 kts 332°
2026-04-20 23:36 51.66486 -4.50124 38291 ft 440 kts 332°
2026-04-20 23:37 51.72018 -4.54372 38285 ft 440 kts 332°
2026-04-20 23:37 51.77303 -4.59285 38299 ft 438 kts 320°
2026-04-20 23:38 51.81552 -4.66256 38312 ft 436 kts 308°
2026-04-20 23:38 51.85338 -4.73842 38266 ft 424 kts 308°
2026-04-20 23:38 51.87160 -4.77484 38274 ft 410 kts 308°
2026-04-20 23:39 51.88932 -4.81003 38268 ft 396 kts 308°
2026-04-20 23:39 51.90649 -4.84397 38272 ft 383 kts 308°
2026-04-20 23:39 51.92310 -4.87678 38270 ft 370 kts 308°
2026-04-20 23:40 51.95570 -4.94126 38305 ft 374 kts 308°
2026-04-20 23:40 51.98912 -5.00751 38312 ft 385 kts 308°
2026-04-20 23:41 52.02892 -5.06732 38314 ft 397 kts 324°
2026-04-20 23:41 52.07815 -5.10967 38295 ft 403 kts 332°
2026-04-20 23:42 52.12856 -5.14963 38285 ft 401 kts 331°
2026-04-20 23:42 52.17790 -5.18936 38310 ft 392 kts 331°
2026-04-20 23:43 52.22661 -5.22917 38304 ft 392 kts 331°
2026-04-20 23:43 52.27534 -5.26920 38306 ft 393 kts 331°
2026-04-20 23:44 52.32388 -5.30917 38304 ft 394 kts 331°
2026-04-20 23:44 52.37286 -5.34957 38304 ft 395 kts 331°
2026-04-20 23:45 52.42196 -5.39018 38303 ft 396 kts 331°
2026-04-20 23:45 52.47124 -5.43107 38306 ft 398 kts 331°
2026-04-20 23:46 52.52068 -5.47219 38310 ft 399 kts 331°
2026-04-20 23:46 52.57053 -5.51107 37960 ft 393 kts 338°
2026-04-20 23:46 52.59646 -5.52460 37319 ft 391 kts 340°
2026-04-20 23:47 52.62278 -5.53680 36213 ft 401 kts 340°
2026-04-20 23:47 52.65019 -5.54965 35008 ft 412 kts 339°
2026-04-20 23:47 52.67799 -5.56340 33727 ft 422 kts 338°
2026-04-20 23:47 52.70621 -5.57782 32391 ft 427 kts 338°
2026-04-20 23:48 52.73470 -5.59258 31111 ft 431 kts 337°
2026-04-20 23:48 52.76337 -5.60752 29769 ft 432 kts 337°
2026-04-20 23:48 52.79206 -5.62251 28219 ft 434 kts 337°
2026-04-20 23:48 52.82091 -5.63759 26756 ft 435 kts 338°
2026-04-20 23:49 52.84963 -5.65259 25543 ft 431 kts 338°
2026-04-20 23:49 52.87806 -5.66743 24435 ft 426 kts 339°
2026-04-20 23:49 52.90587 -5.68196 23746 ft 412 kts 339°
2026-04-20 23:49 52.93247 -5.69584 23460 ft 388 kts 339°
2026-04-20 23:50 52.95745 -5.70890 23196 ft 367 kts 339°
2026-04-20 23:50 52.98139 -5.72147 22809 ft 353 kts 339°
2026-04-20 23:50 53.00418 -5.73349 22597 ft 335 kts 338°
2026-04-20 23:50 53.02596 -5.74499 22253 ft 324 kts 338°
2026-04-20 23:51 53.04735 -5.75633 21611 ft 322 kts 339°
2026-04-20 23:51 53.06875 -5.76771 20920 ft 323 kts 339°
2026-04-20 23:51 53.09017 -5.77906 20289 ft 322 kts 340°
2026-04-20 23:51 53.11148 -5.79034 19706 ft 321 kts 340°
2026-04-20 23:52 53.13277 -5.80162 19086 ft 322 kts 340°
2026-04-20 23:52 53.15408 -5.81291 18503 ft 320 kts 341°
2026-04-20 23:52 53.17522 -5.82410 17923 ft 317 kts 340°
2026-04-20 23:52 53.19611 -5.83517 17365 ft 313 kts 340°
2026-04-20 23:53 53.21683 -5.84617 16789 ft 311 kts 341°
2026-04-20 23:53 53.23809 -5.85168 16187 ft 312 kts
2026-04-20 23:53 53.25865 -5.84180 15904 ft 305 kts 28°
2026-04-20 23:53 53.27450 -5.81920 15483 ft 301 kts 53°
2026-04-20 23:54 53.28321 -5.78768 14946 ft 301 kts 78°
2026-04-20 23:54 53.28538 -5.75300 14483 ft 299 kts 87°
2026-04-20 23:54 53.28614 -5.71858 14094 ft 294 kts 88°
2026-04-20 23:54 53.28668 -5.68581 13980 ft 278 kts 88°
2026-04-20 23:55 53.29006 -5.65486 13663 ft 270 kts 62°
2026-04-20 23:55 53.30258 -5.63267 13247 ft 264 kts 26°
2026-04-20 23:55 53.32015 -5.62500 12793 ft 262 kts
2026-04-20 23:55 53.33819 -5.62837 12290 ft 263 kts 341°
2026-04-20 23:56 53.35407 -5.64307 11859 ft 261 kts 317°
2026-04-20 23:56 53.36532 -5.66665 11364 ft 262 kts 295°
2026-04-20 23:56 53.37113 -5.69554 10861 ft 263 kts 282°
2026-04-20 23:56 53.37511 -5.72578 10436 ft 263 kts 281°
2026-04-20 23:57 53.37873 -5.75537 10120 ft 258 kts 280°
2026-04-20 23:57 53.38236 -5.78480 9631 ft 259 kts 280°
2026-04-20 23:57 53.38606 -5.81416 9301 ft 254 kts 280°
2026-04-20 23:57 53.38978 -5.84312 8855 ft 255 kts 281°
2026-04-20 23:58 53.39353 -5.87205 8454 ft 253 kts 281°
2026-04-20 23:58 53.39724 -5.90060 8127 ft 249 kts 280°
2026-04-20 23:58 53.40090 -5.92884 7693 ft 244 kts 281°
2026-04-20 23:58 53.40409 -5.95649 6945 ft 242 kts 275°
2026-04-20 23:59 53.40573 -5.98434 6163 ft 239 kts 273°
2026-04-20 23:59 53.40714 -6.01198 5393 ft 237 kts 273°
2026-04-20 23:59 53.40860 -6.03927 4629 ft 234 kts 274°
2026-04-20 23:59 53.41004 -6.06614 3976 ft 227 kts 275°
2026-04-21 00:00 53.41143 -6.09131 3730 ft 205 kts 275°
2026-04-21 00:00 53.41283 -6.11448 3313 ft 193 kts 275°
2026-04-21 00:00 53.41404 -6.13482 3136 ft 167 kts 275°
2026-04-21 00:00 53.41503 -6.15345 2784 ft 159 kts 274°
2026-04-21 00:01 53.41599 -6.17212 2224 ft 160 kts 274°
2026-04-21 00:01 53.41697 -6.19094 1631 ft 162 kts 275°
2026-04-21 00:01 53.41799 -6.20941 1058 ft 159 kts 276°
2026-04-21 00:01 53.41904 -6.22737 621 ft 149 kts 276°
2026-04-21 00:02 53.41991 -6.24411 309 ft 140 kts 276°
2026-04-21 00:02 53.42073 -6.25965 210 ft 121 kts 274°
2026-04-21 00:02 53.42116 -6.26775 210 ft 28 kts 276°
2026-04-21 00:02 53.42133 -6.26966 210 ft 14 kts 280°
2026-04-21 00:03 53.42203 -6.27058 212 ft 14 kts
2026-04-21 00:03 53.42296 -6.27017 215 ft 14 kts 46°
2026-04-21 00:03 53.42300 -6.26862 210 ft 13 kts 95°
2026-04-21 00:03 53.42292 -6.26709 210 ft 13 kts 95°
2026-04-21 00:04 53.42285 -6.26561 210 ft 13 kts 96°
2026-04-21 00:04 53.42274 -6.26417 213 ft 12 kts 97°
2026-04-21 00:04 53.42266 -6.26256 210 ft 18 kts 85°
2026-04-21 00:04 53.42326 -6.26049 210 ft 20 kts 47°
2026-04-21 00:05 53.42428 -6.25890 210 ft 20 kts 25°
2026-04-21 00:05 53.42538 -6.25993 210 ft 19 kts 338°
2026-04-21 00:05 53.42589 -6.25995 213 ft 2 kts
2026-04-21 00:05 53.42592 -6.25995 214 ft 0 kts